Flag for Switzerland

Past Weather in Chur, Graubünden, Switzerland — Yesterday and Last 2 Weeks

Now
57 °F

Cool.


Feels Like: 57 °F
Forecast: 67 / 53 °F
Wind: 1 mph from Southwest

Location: Chur
Current Time: Sep 22, 2020 at 8:13:07 am
Latest Report: Sep 22, 2020 at 7:00 am
Visibility: N/A
Pressure29.98 "Hg(27.94 "Hg at 592m altitude)
Humidity: 89%
Dew Point: 54 °F
Location of ChurLocation

Past Weather in Chur — Graph

°F

Chur Temperature Yesterday

Maximum temperature yesterday: 71 °F (at 3:00 pm)
Minimum temperature yesterday: 57 °F (at 7:00 am)
Average temperature yesterday: 64 °F

High & Low Weather Summary for the Past Weeks

 TemperatureHumidityPressure
High83 °F (Sep 14, 2:00 pm)94% (Sep 8, 3:00 am)30.36 "Hg (Sep 8, 3:00 am)
Low52 °F (Sep 8, 4:00 am)43% (Sep 16, 5:00 pm)29.85 "Hg (Sep 20, 3:00 pm)
Average66 °F73%30.12 "Hg
* Reported Sep 7 6:00 am — Sep 22 6:00 am, Chur. Weather by CustomWeather, © 2020

Note: Actual official high and low records may vary slightly from our data, if they occured in-between our weather recording intervals... More about our weather records

Chur Weather History for the Previous 24 Hours

Scroll right to see more
 ConditionsComfort  
Time TempWeatherWind HumidityBarometerVisibility
6:00 am
Tue, Sep 22
57 °FCool.1 mph90%29.98 "HgN/A
5:00 am57 °FFog.1 mph89%29.98 "Hg3 mi
4:00 am59 °FCool.3 mph82%29.96 "HgN/A
3:00 am60 °FCool.3 mph82%29.97 "HgN/A
2:00 am61 °FFog.3 mph80%29.98 "Hg2 mi
1:00 am61 °FCool.5 mph82%29.98 "HgN/A
12:00 am62 °FCool.3 mph83%29.99 "HgN/A
11:00 pm
Mon, Sep 21
62 °FFog.3 mph85%29.99 "Hg3 mi
10:00 pm63 °FMild.2 mph86%29.98 "HgN/A
9:00 pm66 °FMild.2 mph74%29.97 "HgN/A
8:00 pm66 °FPassing clouds.1 mph81%29.96 "Hg6 mi
7:00 pm68 °FMild.1 mph78%29.94 "HgN/A
6:00 pm70 °FMild.5 mph68%29.92 "HgN/A
4:00 pm71 °FMild.5 mph66%29.92 "HgN/A
3:00 pm71 °FMild.6 mph67%29.93 "HgN/A
2:00 pm70 °FOvercast.3 mph64%29.95 "Hg7 mi
1:00 pm69 °FMild.3 mph66%29.96 "HgN/A
12:00 pm67 °FMild.2 mph65%29.97 "HgN/A
11:00 am66 °FPassing clouds.1 mph68%29.99 "Hg11 mi
10:00 am63 °FMild.1 mph77%30.01 "HgN/A
9:00 am58 °FCool.No wind89%30.03 "HgN/A
8:00 am58 °FFog.1 mph92%30.02 "Hg6 mi
Weather by CustomWeather, © 2020

See weather overview